Flag for Austria Weather past 2 weeks in Hollabrunn, Lower Austria, Austria

Now
64 °F

Mild.


Feels Like: 64 °F
Forecast: 56 / 68 °F
Wind: 3 mph from Southwest

Location: Retz

Current Time: Jul 29, 2015 at 11:49:53 AM

Latest Report: Jul 29, 2015 at 11:00 AM


Visibility: N/A

Pressure: 29.86 "Hg

Humidity: 69%

Dew point: 54 °F

Location of HollabrunnLocation

Historic Weather in Hollabrunn — Graph

°F

Hollabrunn temperature yesterday

Maximum temperature yesterday: 77 °F (at 6:00 PM)
Minimum temperature yesterday: 58 °F (at 4:00 AM)
Average temperature yesterday: 69 °F

Past Weeks' High & Low Weather Summary

 TemperatureHumidityPressure
High96 °F (Jul 17, 3:00 PM)92% (Jul 29, 7:00 AM)30.11 "Hg (Jul 29, 7:00 AM)
Low56 °F (Jul 26, 6:00 AM)21% (Jul 17, 3:00 PM)29.64 "Hg (Jul 27, 4:00 PM)
Average75 °F56%29.89 "Hg
* Reported Jul 14 10:00 AM — Jul 29 10:00 AM, Hollabrunn, Weather by CustomWeather, © 2015

Note: Actual official high and low records may vary slightly from our data, if they occured in-between our weather recording intervals... More about our weather records

Advertising

Hollabrunn weather history for previous 24 hours

 ConditionsComfort  
Time TempWeatherWind HumidityBarometerVisibility
10:00 AM
Wed, Jul 29
62 °FCool.5 mph79%29.87 "HgN/A
9:00 AM58 °FCool.3 mph90%29.89 "HgN/A
8:00 AM57 °FOvercast.2 mph92%29.89 "Hg14 mi
7:00 AM56 °FOvercast.3 mph92%29.88 "Hg12 mi
6:00 AM56 °FFog.3 mph91%29.88 "HgN/A
4:00 AM58 °FFog.7 mph84%29.85 "HgN/A
3:00 AM61 °FCool.6 mph75%29.82 "HgN/A
2:00 AM65 °FSprinkles. Overcast.5 mph62%29.80 "HgN/A
1:00 AM68 °FMild.5 mph56%29.78 "HgN/A
12:00 AM69 °FMild.6 mph56%29.79 "HgN/A
10:00 PM
Tue, Jul 28
68 °FMild.5 mph58%29.76 "HgN/A
9:00 PM71 °FMild.2 mph52%29.74 "HgN/A
8:00 PM74 °FPartly sunny.7 mph45%29.72 "Hg25 mi
7:00 PM75 °FMild.7 mph44%29.71 "HgN/A
6:00 PM77 °FMild.7 mph42%29.70 "HgN/A
5:00 PM75 °FMild.6 mph43%29.71 "HgN/A
4:00 PM75 °FMild.8 mph42%29.72 "HgN/A
3:00 PM76 °FMild.7 mph41%29.73 "HgN/A
2:00 PM75 °FOvercast.9 mph40%29.74 "Hg25 mi
1:00 PM74 °FMild.8 mph41%29.75 "HgN/A
12:00 PM75 °FMild.8 mph43%29.75 "HgN/A
11:00 AM73 °FMild.7 mph46%29.77 "HgN/A
Weather by CustomWeather, © 2015

See weather overviewHow to use our weather pages